AO-71 (37854 NORAD) Tracking and Keplerian Element Data

This shows tracking and keplerian element data for the satellite.

Feedback or suggestion? Click here.




ElementValue
Catalog37854
NameAO-71
Epoch Orbit42463
Epoch Day220.4358622
Epoch Year2019
RAAN144.7574
Inclination101.6974
Eccentricity0.0160344
Argument of Perigee275.1623
Mean Anonmoly83.1308
Mean Motion15.06513356
Decay Rate4.54E-06
L11 37854U 11061E 19220.43586220 .00000454 00000-0 31481-4 0 9994
L22 37854 101.6974 144.7574 0160344 275.1623 83.1308 15.06513356424630

Live tracking and technical data element details for AO-71 (NORAD 37854). AO-71 can be tracked NOW for your location showing map with azimuth and elevation plus other details from your city location.

Track the satellite on the map from your city or location and see movement details for azimuth, elevation, latitude, longitude, range, height, and movement on the map or in text.







IsCatalogInMostPopularTable: catalog: 37854, numindb: 159
Update: records affected: 1



GetName: 37854 AO-71

Hit Count: updated at: Sat, 17 Aug 2019 10:27:46 GMT